Tracking 29892 objects as of 21-Nov-2024
HD Live streaming from Space Station
objects crossing your sky now

STARLINK-31534

Track STARLINK-31534 now!
10-day predictions
STARLINK-31534 is classified as:


NORAD ID: 59398
Int'l Code: 2024-064A
Perigee: 450.2 km
Apogee: 452.3 km
Inclination: 43.0 °
Period: 93.5 minutes
Semi major axis: 6822 km
RCS: Unknown
Launch date: April 5, 2024
Source: United States (US)
Launch site: AIR FORCE EASTERN TEST RANGE (AFETR)
Your satellite tracking list
Your tracking list is empty




NASA's NSSDC Master Catalog

Two Line Element Set (TLE):
1 59398U 24064A   24326.08105834 -.00000595  00000-0 -69841-5 0  9990
2 59398  43.0030 220.3773 0001570 268.5848  91.4828 15.40684276 36626
Source of the keplerian elements: AFSPC